Tracking 17140 objects as of 2-July-2015
HD Live streaming from Space Station

OSCAR 36 (UOSAT 12)

Track OSCAR 36 (UOSAT 12) now!
10-day predictions
OSCAR 36 (UOSAT 12) is classified as:


NORAD ID: 25693
Int'l Code: 1999-021A
Perigee: 606.2 km
Apogee: 663.8 km
Inclination: 64.6 °
Period: 97.3 minutes
Semi major axis: 7005 km
RCS: 1.4285 m2 (large)
Launch date: April 21, 1999
Source: United Kingdom (UK)

Used for email and communication services to remote areas.
Your satellite tracking list
Your tracking list is empty





NASA's NSSDC Master Catalog

Two Line Element Set (TLE):
1 25693U 99021A   15182.17618049 -.00000037  00000-0  14417-4 0  9991
2 25693 064.5544 175.1405 0041100 238.8571 199.6639 14.80470226874015

Source of the keplerian elements: AFSPC

N2YO: 232